Location: Christianberg
(48.9086°N, 14.0209°E)
Time: 21:41:21
(UTC+00:00)

Cosmos 1151 Rocket - Pass Details

Date: 20 June 2021
Orbit: 592 x 615 km, 82.5° (Epoch: 04 August)

Event Time Altitude Azimuth Distance (km) Brightness Sun altitude
Rises 01:10:27 0° 355° (N) 2,849 7.5 -12.5°
Reaches altitude 10° 01:12:45 10° 1° (N) 1,940 6.6 -12.3°
Maximum altitude 01:16:53 46° 76° (ENE) 803 4.0 -11.9°
Drops below altitude 10° 01:20:58 10° 150° (SSE) 1,922 5.3 -11.6°
Enters shadow 01:23:09 - 156° (SSE) 2,783 6.1 -11.4°
